Mora, MN

4:11 PM CDT on March 27, 2017 (GMT -0500)
Mora Municipal

Weather History for KJMR - August, 2012

Change the Weather History Date:

Friday, August 3, 2012

  Actual Average Record
Temperature  
Mean Temperature 72 °F -  
Max Temperature 86 °F 80 °F 95 °F (1958)
Min Temperature 59 °F 51 °F 37 °F (1978)
Cooling Degree Days 8    
Growing Degree Days 22 (Base 50)    
Moisture  
Dew Point 61 °F    
Average Humidity 74    
Maximum Humidity 94    
Minimum Humidity 43    
Precipitation  
Precipitation 0.09 in - - ()
Sea Level Pressure  
Sea Level Pressure 29.89 in    
Wind  
Wind Speed 3 mph (ESE)    
Max Wind Speed 18 mph    
Max Gust Speed 29 mph    
Visibility 10 miles    
Events Rain , Thunderstorm    
Averages and records for this station are not official NWS values.
T = Trace of Precipitation, MM = Missing Value Source: NWS Daily Summary

Daily Weather History Graph

Daily Weather History Graph

Search for Another Location

Airport or City:

Trip Planner

Search our weather history database for the weather conditions in past years. The results will help you decide how hot, cold, wet, or windy it might be!

Date:

Astronomy

Aug. 03, 2012 Rise Set
Actual Time 5:58 AM CDT 8:38 PM CDT
Civil Twilight 5:24 AM CDT 9:12 PM CDT
Nautical Twilight 4:41 AM CDT 9:55 PM CDT
Astronomical Twilight 3:51 AM CDT 10:45 PM CDT
Moon 9:06 PM CDT (8/3) 7:51 AM CDT (8/3)
Length of Visible Light 15h 48m
Length of Day
14h 39m
Full, 97% of the Moon is Illuminated
Aug 3
Full
Aug 9
Last Quarter
Aug 17
New
Aug 24
First Quarter
Aug 31
Full

Hourly Weather History & Observations

Time (CDT) Temp. Heat Index Dew Point Humidity Pressure Visibility Wind Dir Wind Speed Gust Speed Precip Events Conditions
12:17 AM 62.6 °F - 60.8 °F 94% 29.91 in 10.0 mi Calm Calm - N/A   Clear
12:37 AM 60.8 °F - 59.0 °F 94% 29.91 in 10.0 mi Calm Calm - N/A   Clear
12:57 AM 60.8 °F - 59.0 °F 94% 29.91 in 10.0 mi Calm Calm - N/A   Clear
1:17 AM 60.8 °F - 59.0 °F 94% 29.92 in 10.0 mi Calm Calm - N/A   Clear
1:37 AM 59.0 °F - 57.2 °F 94% 29.91 in 7.0 mi Calm Calm - N/A   Clear
1:57 AM 59.0 °F - 57.2 °F 94% 29.91 in 10.0 mi Calm Calm - N/A   Clear
2:17 AM 59.0 °F - 55.4 °F 88% 29.92 in 10.0 mi Calm Calm - N/A   Clear
2:37 AM 59.0 °F - 55.4 °F 88% 29.92 in 7.0 mi Calm Calm - N/A   Clear
2:57 AM 59.0 °F - 55.4 °F 88% 29.92 in 10.0 mi Calm Calm - N/A   Clear
3:17 AM 59.0 °F - 57.2 °F 94% 29.91 in 10.0 mi Calm Calm - N/A   Clear
3:37 AM 59.0 °F - 57.2 °F 94% 29.91 in 10.0 mi Calm Calm - N/A   Clear
3:57 AM 59.0 °F - 57.2 °F 94% 29.92 in 10.0 mi Calm Calm - N/A   Clear
4:17 AM 59.0 °F - 55.4 °F 88% 29.92 in 10.0 mi Calm Calm - N/A   Clear
4:37 AM 59.0 °F - 55.4 °F 88% 29.92 in 10.0 mi Calm Calm - N/A   Clear
4:57 AM 59.0 °F - 55.4 °F 88% 29.92 in 10.0 mi Calm Calm - N/A   Clear
5:17 AM 59.0 °F - 55.4 °F 88% 29.92 in 10.0 mi East 3.5 mph - N/A   Scattered Clouds
5:37 AM 59.0 °F - 57.2 °F 94% 29.93 in 10.0 mi Calm Calm - N/A   Mostly Cloudy
5:57 AM 59.0 °F - 57.2 °F 94% 29.93 in 10.0 mi Calm Calm - N/A   Overcast
6:17 AM 59.0 °F - 57.2 °F 94% 29.93 in 10.0 mi ENE 3.5 mph - N/A   Overcast
6:37 AM 60.8 °F - 59.0 °F 94% 29.94 in 10.0 mi Calm Calm - N/A   Overcast
6:57 AM 60.8 °F - 59.0 °F 94% 29.93 in 10.0 mi Calm Calm - N/A   Overcast
7:17 AM 60.8 °F - 59.0 °F 94% 29.93 in 10.0 mi Calm Calm - N/A   Overcast
7:37 AM 62.6 °F - 60.8 °F 94% 29.94 in 10.0 mi Calm Calm - N/A   Overcast
7:57 AM 64.4 °F - 62.6 °F 94% 29.93 in 10.0 mi Calm Calm - N/A   Mostly Cloudy
8:17 AM 64.4 °F - 62.6 °F 94% 29.93 in 10.0 mi NE 4.6 mph - N/A   Scattered Clouds
8:37 AM 64.4 °F - 60.8 °F 88% 29.93 in 10.0 mi East 4.6 mph - N/A   Clear
8:57 AM 64.4 °F - 60.8 °F 88% 29.93 in 10.0 mi East 4.6 mph - N/A   Clear
9:17 AM 66.2 °F - 60.8 °F 83% 29.94 in 10.0 mi ESE 4.6 mph - N/A   Clear
9:37 AM 68.0 °F - 60.8 °F 78% 29.95 in 10.0 mi South 3.5 mph - N/A   Clear
9:57 AM 68.0 °F - 62.6 °F 83% 29.94 in 10.0 mi SSE 3.5 mph - N/A   Clear
10:17 AM 69.8 °F - 64.4 °F 83% 29.94 in 10.0 mi SSE 3.5 mph - N/A   Clear
10:37 AM 69.8 °F - 62.6 °F 78% 29.93 in 10.0 mi SSE 3.5 mph - N/A   Clear
10:57 AM 73.4 °F - 62.6 °F 69% 29.93 in 10.0 mi ESE 4.6 mph - N/A   Clear
11:17 AM 75.2 °F - 62.6 °F 65% 29.94 in 10.0 mi ENE 3.5 mph - N/A   Scattered Clouds
11:37 AM 77.0 °F - 62.6 °F 61% 29.96 in 10.0 mi NE 5.8 mph - N/A   Mostly Cloudy
11:57 AM 77.0 °F - 60.8 °F 57% 29.95 in 10.0 mi NE 3.5 mph - N/A   Overcast
12:17 PM 75.2 °F - 64.4 °F 69% 29.95 in 10.0 mi NE 4.6 mph - N/A   Scattered Clouds
12:37 PM 75.2 °F - 62.6 °F 65% 29.95 in 10.0 mi NE 8.1 mph - N/A   Clear
12:57 PM 77.0 °F - 62.6 °F 61% 29.94 in 10.0 mi ENE 6.9 mph - N/A   Scattered Clouds
1:17 PM 77.0 °F - 62.6 °F 61% 29.93 in 10.0 mi East 8.1 mph - N/A   Clear
1:37 PM 77.0 °F - 62.6 °F 61% 29.92 in 10.0 mi East 9.2 mph - N/A   Clear
1:57 PM 77.0 °F - 60.8 °F 57% 29.92 in 10.0 mi ESE 6.9 mph - N/A   Clear
2:17 PM 78.8 °F - 60.8 °F 54% 29.91 in 10.0 mi ESE 6.9 mph - N/A   Clear
2:37 PM 78.8 °F - 62.6 °F 57% 29.90 in 10.0 mi East 8.1 mph - N/A   Clear
2:57 PM 78.8 °F - 62.6 °F 57% 29.90 in 10.0 mi East 5.8 mph 17.3 mph N/A   Clear
3:17 PM 82.4 °F 83.9 °F 64.4 °F 54% 29.89 in 10.0 mi East 6.9 mph - N/A   Clear
3:37 PM 82.4 °F 83.9 °F 64.4 °F 54% 29.88 in 10.0 mi ESE 10.4 mph - N/A   Clear
3:57 PM 82.4 °F 83.4 °F 62.6 °F 51% 29.87 in 10.0 mi East 10.4 mph - N/A   Clear
4:17 PM 82.4 °F 83.4 °F 62.6 °F 51% 29.86 in 10.0 mi ESE 9.2 mph 16.1 mph N/A   Clear
4:37 PM 86.0 °F 87.3 °F 64.4 °F 48% 29.85 in 10.0 mi ESE 11.5 mph 17.3 mph N/A   Clear
4:57 PM 86.0 °F 86.6 °F 62.6 °F 45% 29.85 in 10.0 mi ESE 9.2 mph - N/A   Clear
5:17 PM 86.0 °F 86.1 °F 60.8 °F 43% 29.85 in 10.0 mi SE 6.9 mph - N/A   Clear
5:37 PM 86.0 °F 86.1 °F 60.8 °F 43% 29.85 in 10.0 mi SE 9.2 mph - N/A   Clear
5:57 PM 86.0 °F 86.6 °F 62.6 °F 45% 29.84 in 10.0 mi SE 6.9 mph - N/A   Clear
6:17 PM 86.0 °F 86.6 °F 62.6 °F 45% 29.83 in 10.0 mi SE 9.2 mph - N/A   Scattered Clouds
6:37 PM 82.4 °F 82.9 °F 60.8 °F 48% 29.82 in 10.0 mi SE 6.9 mph - N/A   Clear
6:57 PM 82.4 °F 82.9 °F 60.8 °F 48% 29.81 in 10.0 mi SE 6.9 mph - N/A   Clear
7:17 PM 78.8 °F - 59.0 °F 51% 29.80 in 10.0 mi SE 4.6 mph - N/A   Clear
7:37 PM 78.8 °F - 60.8 °F 54% 29.80 in 10.0 mi SE 4.6 mph - N/A   Clear
7:57 PM 77.0 °F - 60.8 °F 57% 29.79 in 10.0 mi East 4.6 mph - N/A   Clear
8:37 PM 75.2 °F - 62.6 °F 65% 29.80 in 10.0 mi ESE 5.8 mph - N/A   Clear
8:57 PM 73.4 °F - 62.6 °F 69% 29.80 in 10.0 mi East 4.6 mph - N/A   Scattered Clouds
9:37 PM 73.4 °F - 62.6 °F 69% 29.80 in 10.0 mi ESE 5.8 mph - N/A   Clear
9:57 PM 73.4 °F - 62.6 °F 69% 29.79 in 10.0 mi ESE 6.9 mph - N/A   Clear
10:17 PM 73.4 °F - 62.6 °F 69% 29.80 in 10.0 mi SE 5.8 mph - N/A Thunderstorm Scattered Clouds
10:37 PM 73.4 °F - 62.6 °F 69% 29.79 in 10.0 mi East 4.6 mph - N/A Rain Light Rain
10:57 PM 71.6 °F - 62.6 °F 73% 29.78 in 10.0 mi East 4.6 mph - N/A Rain Light Rain
11:17 PM 69.8 °F - 64.4 °F 83% 29.78 in 10.0 mi Calm Calm - N/A Rain , Thunderstorm Light Thunderstorms and Rain
11:37 PM 69.8 °F - 64.4 °F 83% 29.86 in 5.0 mi West 18.4 mph 28.8 mph 0.09 in Rain , Thunderstorm Heavy Thunderstorms and Rain
11:57 PM 64.4 °F - 60.8 °F 88% 29.88 in 7.0 mi NW 12.7 mph 23.0 mph 0.01 in Rain , Thunderstorm Rain